This is the latest recevied weather packets stored in our database for station/object KG4YZY-1. If no packets are shown the sender has not sent any weather packets the latest 10 day(s).
| Time | Temp. | Humidity | Pressure | Rain* | Wind** | Luminosity | Snow |
|---|---|---|---|---|---|---|---|
| 1788125404 | 24.44° C | 90% | 1017.4 hPa | 5.59 mm | - | - | - |
| 1788125103 | 24.44° C | 89% | 1017.1 hPa | 5.59 mm | - | - | - |
| 1788124804 | 25° C | 89% | 1017.2 hPa | 5.59 mm | - | - | - |
| 1788124503 | 25° C | 88% | 1017.3 hPa | 5.59 mm | - | - | - |
| 1788124204 | 25° C | 86% | 1017.2 hPa | 5.33 mm | - | - | - |
| 1788123903 | 25.56° C | 84% | 1017.4 hPa | 5.33 mm | - | - | - |
| 1788123604 | 26.11° C | 83% | 1017.7 hPa | 4.83 mm | - | - | - |
| 1788123304 | 26.67° C | 82% | 1017.8 hPa | 4.32 mm | - | - | - |
| 1788123004 | 26.67° C | 81% | 1018 hPa | 3.05 mm | - | - | - |
| 1788122704 | 27.22° C | 79% | 1018.2 hPa | 1.52 mm | - | - | - |
| 1788122404 | 28.33° C | 74% | 1018 hPa | 0 mm | - | - | - |
| 1788122104 | 28.33° C | 71% | 1018 hPa | 0 mm | - | - | - |
| 1788121804 | 29.44° C | 69% | 1017.9 hPa | 0 mm | - | - | - |
| 1788121503 | 30° C | 68% | 1017.8 hPa | 0 mm | - | - | - |
| 1788121204 | 30.56° C | 72% | 1017.7 hPa | 0 mm | - | - | - |
| 1788120904 | 31.11° C | 71% | 1017.3 hPa | 0 mm | - | - | - |
| 1788120604 | 31.67° C | 70% | 1016.9 hPa | 0 mm | - | - | - |
| 1788120303 | 31.67° C | 69% | 1016.9 hPa | 0 mm | - | - | - |
| 1788120004 | 31.67° C | 71% | 1017.2 hPa | 0 mm | - | - | - |
| 1788119704 | 31.67° C | 71% | 1017.2 hPa | 0 mm | - | - | - |
| 1788119404 | 31.67° C | 72% | 1017.3 hPa | 0 mm | - | - | - |
| 1788119104 | 31.67° C | 71% | 1017.5 hPa | 0 mm | - | - | - |
| 1788118804 | 31.67° C | 71% | 1017.5 hPa | 0 mm | - | - | - |
| 1788118503 | 31.67° C | 70% | 1017.5 hPa | 0 mm | - | - | - |
| 1788118204 | 31.67° C | 72% | 1017.5 hPa | 0 mm | - | - | - |
* Rain latest hour (hover to see other rain measurements)
** Current wind speed in m/s (hover to see current wind gust speed)